Find Starlink 35808

NORAD ID: 68052 Int'l Des: 2026-041 Owner: SPXS Country: US Constellation: starlink operational
LEOCIRCULAR

Live Position

Loading 3D Globe...

About Starlink 35808

Description loading...

Upcoming Passes

Passes for default location (London). Set your location on the main map for personalized predictions.

Altitude History

Loading altitude history...

Two-Line Element Set

1 68052U 26041N 26106.91668981 -.02207438 00000-0 -62753-1 0 9999
2 68052 53.1601 232.7186 0001397 67.4615 353.2768 15.39011224 6061
Epoch: Apr 16, 2026 • Age: 12 hours

Current Status

Altitude 457.4 km
Velocity 7.64 km/s
Sub-Earth Point -3.06°S, 130.51°W
Launch Date Mar 2, 2026
Age 0.1 years
Type internet

Technical Details

Classification Payload
Mass 575.00 kg
Dry Mass 530.00 kg
Total Mass 575.00 kg
Length 0.30 m
Diameter 4.10 m
Span 29.00 m
Shape Box + pan
Manufacturer SPXS
Bus Type Starlink V2MO
Phase Status In Orbit
Owner/State SPXS/US

Most Searched